Weather History for Yakutat, AK

Change the Weather History Date:

Wednesday, August 7, 2013

  Actual Average Record
Temperature  
Mean Temperature 57 °F 55 °F  
Max Temperature 67 °F 61 °F 72 °F (1957)
Min Temperature 47 °F 49 °F 36 °F (1991)
Degree Days  
Heating Degree Days 8 10  
Month to date heating degree days 59 70  
Since 1 June heating degree days 698 828  
Since 1 July heating degree days 356 402  
Cooling Degree Days 0    
Month to date cooling degree days 0  
Year to date cooling degree days 0  
Since 1 June cooling degree days 0  
Growing Degree Days 7 (Base 50)    
Moisture  
Dew Point 51 °F    
Average Humidity 0    
Maximum Humidity 0    
Minimum Humidity 0    
Precipitation  
Precipitation 0.04 in 0.41 in 2.85 in (1963)
Month to date precipitation 1.07 2.67  
Year to date precipitation 69.15 69.90  
Snow  
Snow 0.00 in 0.00 in 0.00 in (2014)
Month to date snowfall 0.0 0.0  
Since 1 June snowfall 0.0 0.0  
Since 1 July snowfall 0.0 0.0  
Snow Depth 0.00 in    
Sea Level Pressure  
Sea Level Pressure 29.96 in    
Wind  
Wind Speed 3 mph (SE)    
Max Wind Speed 13 mph    
Max Gust Speed 20 mph    
Visibility 9 miles    
Events Rain    
T = Trace of Precipitation, MM = Missing Value Source: NWS Daily Summary

Daily Weather History Graph

Daily Weather History Graph

Search for Another Location

Airport:

Trip Planner

Search our weather history database for the weather conditions in past years. The results will help you decide how hot, cold, wet, or windy it might be!

Date:

Astronomy

Aug. 07, 2013 Rise Set
Actual Time 5:17 AM AKDT 9:29 PM AKDT
Civil Twilight 4:23 AM AKDT 10:23 PM AKDT
Nautical Twilight 2:54 AM AKDT 11:49 PM AKDT
Astronomical Twilight Sun does not rise Sun does not rise
Moon 6:46 AM AKDT (8/7) 9:00 PM AKDT (8/7)
Length of Visible Light 17h 59m
Length of Day
16h 11m
New Moon, 1% of the Moon is Illuminated
Aug 7
New Moon
Aug 14
First Quarter
Aug 20
Full
Aug 28
Last Quarter
Sep 5
New

Hourly Weather History & Observations

Time (AKDT) Temp. Windchill Dew Point Humidity Pressure Visibility Wind Dir Wind Speed Gust Speed Precip Events Conditions
12:17 AM 48.2 °F - 48.2 °F 100% 30.00 in 10.0 mi Calm Calm - N/A   Scattered Clouds
12:26 AM 48.2 °F - 48.2 °F 100% 30.00 in 10.0 mi Calm Calm - N/A   Mostly Cloudy
12:53 AM 48.9 °F - 48.0 °F 97% 30.00 in 4.0 mi Calm Calm - N/A   Mostly Cloudy
1:06 AM 48.2 °F - 48.2 °F 100% 29.99 in 10.0 mi Calm Calm - N/A   Scattered Clouds
1:17 AM 46.4 °F 45.2 °F 46.4 °F 100% 29.99 in 1.5 mi NNE 3.5 mph - N/A   Scattered Clouds
1:19 AM 46.4 °F - 46.4 °F 100% 29.99 in 1.0 mi Calm Calm - N/A   Mist
1:44 AM 48.2 °F - 46.4 °F 93% 29.99 in 2.0 mi Calm Calm - N/A   Mostly Cloudy
1:53 AM 48.0 °F - 48.0 °F 100% 29.99 in 10.0 mi Calm Calm - N/A   Mostly Cloudy
2:08 AM 48.2 °F - 48.2 °F 100% 29.98 in 10.0 mi Calm Calm - N/A   Scattered Clouds
2:53 AM 48.9 °F - 48.0 °F 97% 29.98 in 10.0 mi Calm Calm - N/A   Scattered Clouds
3:36 AM 48.2 °F - 48.2 °F 100% 29.98 in 10.0 mi Calm Calm - N/A   Scattered Clouds
3:45 AM 48.2 °F - 48.2 °F 100% 29.97 in 10.0 mi Calm Calm - N/A   Mostly Cloudy
3:53 AM 48.9 °F - 48.9 °F 100% 29.98 in 10.0 mi Calm Calm - N/A   Mostly Cloudy
4:17 AM 48.2 °F - 48.2 °F 100% 29.97 in 10.0 mi Calm Calm - N/A   Partly Cloudy
4:53 AM 48.0 °F - 48.0 °F 100% 29.97 in 3.0 mi Calm Calm - N/A   Mostly Cloudy
5:53 AM 48.9 °F - 48.0 °F 97% 29.96 in 10.0 mi Calm Calm - N/A   Mostly Cloudy
6:53 AM 50.0 °F - 50.0 °F 100% 29.96 in 10.0 mi Calm Calm - N/A   Clear
7:53 AM 54.0 °F - 51.1 °F 90% 29.95 in 10.0 mi Calm Calm - N/A   Mostly Cloudy
8:53 AM 55.9 °F - 53.1 °F 90% 29.95 in 10.0 mi Calm Calm - N/A   Mostly Cloudy
9:53 AM 62.1 °F - 53.1 °F 72% 29.95 in 10.0 mi Calm Calm - N/A   Mostly Cloudy
10:53 AM 64.0 °F - 52.0 °F 65% 29.94 in 10.0 mi Variable 4.6 mph - N/A   Clear
11:53 AM 64.9 °F - 54.0 °F 68% 29.94 in 10.0 mi Calm Calm - N/A   Clear
12:53 PM 66.0 °F - 53.1 °F 63% 29.94 in 10.0 mi South 5.8 mph - N/A   Scattered Clouds
1:53 PM 66.0 °F - 51.1 °F 59% 29.95 in 10.0 mi South 8.1 mph - N/A   Partly Cloudy
2:53 PM 66.0 °F - 52.0 °F 60% 29.95 in 10.0 mi SE 6.9 mph - N/A   Clear
3:53 PM 64.0 °F - 52.0 °F 65% 29.95 in 10.0 mi SSE 8.1 mph - N/A   Mostly Cloudy
4:53 PM 63.0 °F - 53.1 °F 70% 29.95 in 10.0 mi Variable 5.8 mph 16.1 mph N/A   Scattered Clouds
5:53 PM 63.0 °F - 52.0 °F 67% 29.95 in 10.0 mi Variable 4.6 mph - N/A   Partly Cloudy
6:53 PM 64.0 °F - 52.0 °F 65% 29.94 in 10.0 mi SE 5.8 mph - N/A   Partly Cloudy
7:53 PM 63.0 °F - 54.0 °F 72% 29.93 in 10.0 mi Calm Calm - N/A   Mostly Cloudy
8:53 PM 62.1 °F - 54.0 °F 75% 29.92 in 10.0 mi NNE 4.6 mph - N/A   Overcast
9:53 PM 61.0 °F - 55.0 °F 81% 29.93 in 10.0 mi SSW 3.5 mph - 0.00 in Rain Light Rain
10:53 PM 59.0 °F - 57.0 °F 93% 29.93 in 10.0 mi Calm Calm - 0.03 in Rain Light Rain
11:53 PM 57.0 °F - 55.9 °F 96% 29.93 in 9.0 mi NE 3.5 mph - 0.00 in Rain Light Rain